Location: Kershaw
(34.5481°N, 80.5823°W)
Time: 03:03:05
(UTC+00:00)

Tiros 1 despin weight - Pass Details

Date: 11 October 2022
Orbit: 590 x 637 km, 48.2° (Epoch: 30 November)

Event Time Altitude Azimuth Distance (km) Brightness Sun altitude
Rises 22:04:09 0° 312° (NW) 2,850 ? 9.0°
Reaches altitude 10° 22:07:01 10° 331° (NNW) 1,955 ? 8.4°
Maximum altitude 22:10:14 19° 17° (NNE) 1,466 ? 7.8°
Drops below altitude 10° 22:13:29 10° 63° (ENE) 1,976 ? 7.1°
Sets 22:16:24 0° 81° (E) 2,891 ? 6.5°
